[[{"header":{"parameterUnit":"m.s-1","parameterCategory":1,"la1":30.2991,"la2":30.254,"lo1":-89.0895,"lo2":-89.0444,"dy":0.0017,"dx":0.0017,"nx":28,"ny":28,"refTime":"2024-03-22T09:00:00:Z","depth":0,"parameterNumber":2,"parameterNumberName":"U-component_of_WINDS"},"data":[0,0,0,0,0,0,0,0,0,0,0,0,0,0,0,0,0,0,0,0,0,0,0,0,0,0,0,0,0,0,0,0,0,0,0,0,0,0,0,0,0,0,0,0,0,0,0,0,0,0,0,0,0,0,0,0,0,0,-5.8937,-5.8939,0,-5.9087,-5.9089,-5.9091,-5.902,-5.9016,-5.9012,-5.9009,-5.9163,-5.917,-5.9178,0,0,0,0,0,0,0,0,0,0,0,0,0,-5.8588,-5.8595,-5.8937,-5.8939,-5.8941,-5.9087,-5.9089,-5.9091,-5.9021,-5.9016,-5.9011,-5.9007,-5.916,-5.9169,-5.9178,0,0,0,0,0,0,0,0,0,0,0,0,0,-5.8739,-5.8597,-5.8937,-5.8923,-5.8923,-5.9087,-5.9089,-5.9092,-5.9022,-5.9016,-5.901,-5.9005,-5.9157,-5.9168,-5.918,-5.9365,0,0,-5.9215,-5.922,0,0,0,0,0,0,0,0,-5.873,-5.8752,-5.8923,-5.8924,-5.8925,-5.9029,-5.9022,-5.9183,-5.9023,-5.8984,-5.9009,-5.9002,-5.9123,-5.9137,-5.9177,-5.9372,-5.9379,-5.9216,-5.9223,-5.9228,-5.9231,0,0,0,0,0,0,0,-5.872,-5.8745,-5.8996,-5.8926,-5.8927,-5.8909,-5.8924,-5.9052,-5.9084,-5.8987,-5.8982,-5.9001,-5.9122,-5.9167,-5.9181,-5.9381,-5.9215,-5.9226,-5.9233,-5.9237,-5.9732,-5.9738,0,0,0,0,0,0,-5.871,-5.8737,-5.8992,-5.9001,-5.8812,-5.892,-5.8937,-5.9001,-5.9082,-5.9089,-5.9006,-5.8997,-5.915,-5.9167,-5.9186,-5.9405,-5.9228,-5.9238,-5.9245,-5.9726,-5.9733,-5.974,0,0,0,0,0,0,-5.8703,-5.8733,-5.8986,-5.8868,-5.8898,-5.8932,-5.9005,-5.9007,-5.9052,-5.9096,-5.9101,-5.9046,-5.9146,-5.917,-5.932,-5.941,-5.9243,-5.9254,-5.9718,-5.9728,-5.9736,-5.9848,0,0,0,0,0,0,-5.8693,-5.8731,-5.8802,-5.887,-5.8905,-5.9118,-5.9011,-5.9014,-5.9072,-5.9062,-5.9135,-5.9142,-5.9143,-5.9303,-5.9331,-5.9423,-5.9263,-5.971,-5.9722,-5.9733,-5.9837,-5.986,-5.988,0,0,0,0,0,-5.8681,-5.8829,-5.8806,-5.8838,-5.8995,-5.9124,-5.9144,-5.9143,-5.9079,-5.915,-5.9179,-5.9139,-5.9396,-5.9319,-5.935,-5.9447,-5.9704,-5.9719,-5.9733,-5.9827,-5.9855,-5.988,0,0,0,0,0,0,-5.8771,-5.8837,-5.8813,-5.8987,-5.905,-5.9111,-5.9201,-5.9174,-5.9256,-5.9243,-5.9239,-5.9256,-5.9411,-5.9444,-5.9358,-5.9628,-5.954,-5.9561,-5.9601,-5.9629,-5.965,-5.9639,-5.9272,0,0,0,0,0,-5.8812,-5.8911,-5.8963,-5.9112,-5.9144,-5.9168,-5.9224,-5.9217,-5.9283,-5.9309,-5.9348,-5.9413,-5.9507,-5.957,-5.966,-5.9841,-5.9855,-5.9922,-5.9944,-5.9962,-5.998,-6.0075,-6.0105,-5.9786,-5.9786,-5.9786,0,0,-5.8896,-5.8944,-5.9007,-5.9131,-5.9179,-5.9281,-5.9191,-5.9303,-5.9379,-5.9326,-5.947,-5.9501,-5.9573,-5.9739,-5.9814,-5.9771,-6.0071,-5.998,-5.9994,-6.0002,-6.0093,-6.0123,-6.015,-5.9796,-5.9794,-5.9792,0,0,-5.9101,-5.9148,-5.9275,-5.9325,-5.9399,-5.9413,-5.9444,-5.9509,-5.9528,-5.9672,-5.9634,-5.9723,-5.9888,-5.9939,-5.9987,-6.021,-6.0176,-6.024,-6.0354,-6.0447,-6.0472,-6.0494,-6.0572,-6.06,-6.0258,-6.0258,-6.0258,0,-5.9196,-5.9349,-5.9345,-5.946,-5.9514,-5.9471,-5.9599,-5.9648,-5.9748,-5.9786,-5.9737,-5.994,-5.9985,-6.0161,-6.0215,-6.0257,-6.029,-6.0231,-6.0469,-6.0491,-6.0512,-6.0585,-6.0615,-6.0265,-6.0264,-6.0263,-6.0263,0,-5.946,-5.9567,-5.9661,-5.9757,-5.9823,-5.9944,-5.9958,-6.0025,-6.0013,-6.0032,-6.0178,-6.0231,-6.0329,-6.0371,-6.0361,-6.0546,-6.0516,-6.0469,-6.0379,-6.0549,-6.0618,-6.0647,-6.0275,-6.0273,-6.0271,-6.0269,0,0,-5.9727,-5.9818,-5.9853,-5.9895,-5.9972,-6.0054,-6.0173,-6.0269,-6.0325,-6.0395,-6.0493,-6.0633,-6.0588,-6.0642,-6.0638,-6.072,-6.089,-6.0661,-6.0663,-6.07,-6.1094,-6.1128,-6.1161,-6.0868,-6.0874,-6.0878,-6.1087,0,-5.9935,-6.0143,-6.0142,-6.0334,-6.0431,-6.039,-6.0493,-6.0552,-6.0573,-6.0658,-6.0681,-6.0778,-6.0713,-6.0745,-6.0825,-6.0852,-6.0969,-6.0838,-6.0958,-6.0962,-6.094,-6.1197,-6.1235,-6.1429,-6.1114,-6.1119,-6.1122,0,-6.0206,-6.0284,-6.0485,-6.0546,-6.0587,-6.068,-6.0766,-6.0849,-6.0914,-6.0923,-6.0983,-6.0965,-6.1084,-6.0993,-6.1156,-6.1067,-6.1117,-6.1137,-6.1145,-6.1155,-6.1051,-6.1212,-6.1492,-6.152,-6.1165,-6.1162,-6.1159,0,-6.0377,-6.0532,-6.0672,-6.071,-6.0785,-6.0851,-6.0886,-6.0945,-6.1002,-6.1078,-6.1114,-6.1204,-6.1253,-6.1322,-6.1328,-6.1261,-6.1492,-6.1401,-6.1501,-6.1501,-6.1551,-6.1547,-6.184,-6.1586,-6.1586,-6.1585,-6.1585,0,-6.0609,-6.0733,-6.0749,-6.0835,-6.0972,-6.097,-6.1106,-6.1134,-6.1187,-6.1277,-6.1248,-6.1333,-6.1336,-6.1423,-6.1429,-6.1562,-6.1585,-6.1595,-6.1594,-6.1596,-6.1595,-6.1627,-6.1613,-6.1593,-6.1591,-6.159,-6.1588,0,-6.0822,-6.0839,-6.0988,-6.1047,-6.1065,-6.1163,-6.1213,-6.1294,-6.1312,-6.1426,-6.1453,-6.1481,-6.1581,-6.1594,-6.1712,-6.1715,-6.1875,-6.1861,-6.1853,-6.185,-6.1949,-6.1938,-6.2271,-6.2314,-6.2034,-6.2037,-6.2039,0,-6.0968,-6.1062,-6.1131,-6.1189,-6.1227,-6.1321,-6.1379,-6.138,-6.1442,-6.1522,-6.1593,-6.169,-6.1768,-6.193,-6.196,-6.2049,-6.2037,-6.2147,-6.205,-6.2048,-6.2036,-6.2029,-6.2037,-6.2165,-6.2168,-6.2171,-6.2173,0,-6.1225,-6.1227,-6.1312,-6.14,-6.1469,-6.1538,-6.1603,-6.1652,-6.1661,-6.1731,-6.1833,-6.1894,-6.2013,-6.2109,-6.2197,-6.2232,-6.2204,-6.2203,-6.2231,-6.2233,-6.2223,-6.2227,-6.1902,-6.2195,-6.2193,-6.2191,-6.219,-6.2189,-6.1407,-6.1488,-6.1549,-6.1643,-6.1692,-6.1753,-6.1831,-6.1859,-6.1944,-6.204,-6.2036,-6.2148,-6.2209,-6.2323,-6.2365,-6.2451,-6.2415,-6.2455,-6.2465,-6.2475,-6.2483,-6.2211,-6.2468,-6.2467,-6.2466,-6.2466,-6.2465,0,-6.166,-6.1697,-6.1784,-6.1875,-6.1949,-6.1916,-6.1986,-6.205,-6.2148,-6.2207,-6.2284,-6.24,-6.2493,-6.2531,-6.2622,-6.2684,-6.2673,-6.2707,-6.2702,-6.271,-6.2512,-6.2478,-6.2714,-6.2714,-6.2714,-6.2714,-6.2714,-6.2714,-6.18,-6.1934,-6.1944,-6.2102,-6.2138,-6.2247,-6.2289,-6.2345,-6.2391,-6.2522,-6.2599,-6.2623,-6.2673,-6.2767,-6.285,-6.2859,-6.2893,-6.2932,-6.2935,-6.2749,-6.2724,-6.27,-6.2668,-6.294,-6.2941,-6.3125,-6.3127,-6.3128]},{"header":{"parameterUnit":"m.s-1","parameterCategory":1,"la1":30.2991,"la2":30.254,"lo1":-89.0895,"lo2":-89.0444,"dy":0.0017,"dx":0.0017,"nx":28,"ny":28,"refTime":"2024-03-22T09:00:00:Z","depth":0,"parameterNumber":3,"parameterNumberName":"V-component_of_WINDS"},"data":[0,0,0,0,0,0,0,0,0,0,0,0,0,0,0,0,0,0,0,0,0,0,0,0,0,0,0,0,0,0,0,0,0,0,0,0,0,0,0,0,0,0,0,0,0,0,0,0,0,0,0,0,0,0,0,0,0,0,1.4422,1.4423,0,1.4537,1.4538,1.4539,1.4613,1.4614,1.4614,1.4615,1.4725,1.4727,1.473,0,0,0,0,0,0,0,0,0,0,0,0,0,1.4259,1.4262,1.4422,1.4423,1.4425,1.4537,1.4538,1.454,1.4613,1.4614,1.4614,1.4615,1.4724,1.4727,1.473,0,0,0,0,0,0,0,0,0,0,0,0,0,1.4347,1.4262,1.4421,1.4475,1.4481,1.4536,1.4538,1.454,1.4613,1.4614,1.4615,1.4615,1.4723,1.4727,1.473,1.4739,0,0,1.4742,1.4743,0,0,0,0,0,0,0,0,1.4342,1.4353,1.4466,1.4471,1.4478,1.4562,1.4521,1.4607,1.4613,1.4563,1.4615,1.4616,1.4669,1.4678,1.4697,1.4744,1.4749,1.4742,1.4744,1.4746,1.4747,0,0,0,0,0,0,0,1.4336,1.4348,1.4467,1.4467,1.4475,1.4491,1.4504,1.4538,1.461,1.4567,1.4573,1.4586,1.4673,1.4694,1.47,1.4751,1.4742,1.4745,1.4748,1.4749,1.4811,1.481,0,0,0,0,0,0,1.4322,1.4343,1.4463,1.447,1.4411,1.4493,1.4508,1.4534,1.461,1.4623,1.4585,1.4589,1.4687,1.4696,1.4705,1.4721,1.4746,1.4749,1.4752,1.4811,1.4811,1.481,0,0,0,0,0,0,1.4318,1.4332,1.4459,1.4408,1.4426,1.4495,1.4524,1.4536,1.4557,1.4624,1.4637,1.4593,1.4688,1.4699,1.4731,1.4726,1.4751,1.4755,1.4812,1.4811,1.481,1.4752,0,0,0,0,0,0,1.4314,1.4331,1.4336,1.4408,1.4428,1.4485,1.4523,1.4538,1.4564,1.457,1.4635,1.4646,1.4689,1.4725,1.4734,1.4731,1.4757,1.4813,1.4812,1.4811,1.4755,1.4749,1.4745,0,0,0,0,0,1.4307,1.4313,1.4336,1.435,1.4437,1.4484,1.4496,1.4547,1.4563,1.4569,1.4612,1.4644,1.4724,1.4727,1.4739,1.4737,1.4813,1.4812,1.4811,1.4757,1.475,1.4745,0,0,0,0,0,0,1.4236,1.4324,1.435,1.438,1.4424,1.4497,1.4505,1.4538,1.4577,1.4581,1.464,1.4654,1.4679,1.4711,1.4713,1.4749,1.4773,1.4773,1.4728,1.4722,1.4717,1.4709,1.4761,0,0,0,0,0,1.4225,1.4258,1.4332,1.4351,1.4372,1.4435,1.4457,1.4493,1.454,1.4559,1.4604,1.4647,1.4682,1.4704,1.474,1.476,1.4775,1.4764,1.4758,1.4754,1.4754,1.4767,1.4763,1.4806,1.4806,1.4806,0,0,1.42,1.4252,1.4269,1.4338,1.4377,1.4408,1.445,1.4481,1.4504,1.4563,1.4596,1.4631,1.4682,1.4708,1.4722,1.4735,1.4746,1.4752,1.4748,1.4751,1.4765,1.4761,1.4758,1.4805,1.4805,1.4805,0,0,1.4171,1.4214,1.4235,1.4274,1.4333,1.4375,1.438,1.4447,1.4474,1.4509,1.4553,1.458,1.4639,1.4675,1.47,1.4685,1.4717,1.4695,1.4668,1.468,1.4677,1.4674,1.4669,1.4667,1.4694,1.4694,1.4694,0,1.4132,1.4184,1.4241,1.4271,1.43,1.4357,1.4378,1.4411,1.4477,1.4495,1.451,1.4586,1.4624,1.4659,1.4656,1.4675,1.4681,1.4688,1.4673,1.4671,1.467,1.4665,1.4663,1.4691,1.4692,1.4692,1.4692,0,1.4134,1.4168,1.4178,1.4244,1.4274,1.4298,1.4358,1.438,1.4413,1.4452,1.4487,1.4535,1.4582,1.4593,1.4624,1.4632,1.4639,1.4662,1.4687,1.4662,1.4659,1.4657,1.4687,1.4688,1.4689,1.469,0,0,1.4064,1.4162,1.4165,1.4196,1.4265,1.4292,1.4319,1.4367,1.4386,1.4429,1.4452,1.4501,1.4524,1.4553,1.4588,1.4599,1.4584,1.4621,1.4623,1.4613,1.4596,1.4579,1.4576,1.4605,1.4605,1.4605,1.4592,0,1.4046,1.41,1.4152,1.4187,1.4219,1.4274,1.4297,1.4341,1.4378,1.4409,1.4449,1.4483,1.451,1.4528,1.4541,1.4583,1.4582,1.4585,1.4626,1.4627,1.4612,1.4574,1.4556,1.4541,1.4591,1.4591,1.4591,0,1.4033,1.4077,1.4116,1.4183,1.4198,1.4219,1.4268,1.4297,1.4347,1.4374,1.4406,1.4445,1.4474,1.4495,1.4535,1.4536,1.4555,1.4578,1.4579,1.4585,1.4608,1.458,1.4538,1.4535,1.459,1.459,1.459,0,1.3979,1.4047,1.408,1.4104,1.4183,1.4196,1.4229,1.4281,1.4307,1.4348,1.4366,1.4409,1.4432,1.4464,1.4512,1.4523,1.4547,1.4572,1.4568,1.4567,1.4571,1.457,1.4532,1.4582,1.4582,1.4583,1.4583,0,1.3954,1.3975,1.4057,1.4077,1.4102,1.4161,1.4183,1.422,1.4266,1.4292,1.434,1.4363,1.4426,1.4456,1.4493,1.4521,1.453,1.4551,1.4561,1.4548,1.4545,1.4562,1.4564,1.4582,1.4582,1.4582,1.4582,0,1.3898,1.3954,1.3993,1.4065,1.4084,1.4099,1.416,1.418,1.422,1.4253,1.4264,1.4326,1.4364,1.4415,1.4468,1.4493,1.4516,1.4531,1.45,1.4506,1.4499,1.4499,1.4471,1.447,1.452,1.4519,1.4519,0,1.3879,1.3898,1.3973,1.3995,1.4028,1.4063,1.409,1.4148,1.4174,1.4233,1.4246,1.4288,1.4325,1.4383,1.4431,1.4472,1.4488,1.4475,1.4495,1.448,1.4489,1.4487,1.4489,1.4471,1.447,1.4469,1.4469,0,1.384,1.3867,1.3906,1.3955,1.3987,1.4028,1.407,1.4085,1.4151,1.4177,1.4219,1.4247,1.4303,1.4344,1.4391,1.4422,1.4456,1.4462,1.4464,1.445,1.4432,1.4442,1.4488,1.4463,1.4463,1.4464,1.4464,1.4464,1.3803,1.3822,1.3878,1.392,1.3958,1.3997,1.402,1.4064,1.41,1.4152,1.4182,1.4222,1.4271,1.4338,1.4368,1.4399,1.4412,1.4414,1.4414,1.4414,1.441,1.4427,1.4407,1.4407,1.4407,1.4408,1.4408,0,1.3766,1.3806,1.3844,1.3903,1.3935,1.3967,1.4015,1.404,1.4075,1.4119,1.4155,1.4202,1.4242,1.4294,1.4337,1.4351,1.4367,1.436,1.436,1.4367,1.4395,1.439,1.4346,1.4346,1.4346,1.4346,1.4346,1.4346,1.3752,1.3786,1.3819,1.3872,1.3911,1.3952,1.3977,1.4012,1.4048,1.4099,1.4133,1.4168,1.4215,1.4262,1.4299,1.4313,1.4327,1.4315,1.4333,1.4359,1.4364,1.437,1.4365,1.4317,1.4317,1.4303,1.4303,1.4302]}]]